Location: Unspecified
(0.0000°N, 0.0000°E)
Time: 23:25:16
(UTC+00:00)

S-56A Canister/Altair - Pass Details

Date: 01 October 2020
Orbit: 633 x 2499 km, 38.9° (Epoch: 28 October)

Event Time Altitude Azimuth Distance (km) Brightness Sun altitude
Rises 11:20:11 0° 245° (WSW) 4,838 11.6 81.9°
Reaches altitude 10° 11:23:09 10° 250° (WSW) 4,080 11.3 82.6°
Maximum altitude 11:34:09 50° 322° (NW) 2,665 11.1 84.8°
Drops below altitude 10° 11:48:20 10° 33° (NNE) 5,148 11.8 86.5°
Sets 11:52:40 0° 38° (NE) 6,161 12.1 86.4°
